Theta_e
342 343 342 342 341 342 335 328 326 329 330 329 328 328 331 331 336 337 339 339 339 339 338 331 332 330 328 324 322 326 331 336 338 339 334 338 339 338 329 330 338 339 334
343 343 342 342 342 334 327 328 335 332 336 331 329 332 340 336 335 337 338 339 336 339 336 330 329 334 332 328 337 336 336 338 340 329 323 322 333 334 324 335 337 340 329
343 341 340 339 335 327 332 340 338 335 338 335 336 330 337 341 338 339 339 337 340 339 335 333 337 339 339 339 338 339 337 330 325 318 320 324 333 336 327 336 340 337 334
342 340 339 334 328 339 341 341 339 338 337 339 340 341 334 337 338 338 339 339 341 339 334 335 339 341 342 342 341 343 344 340 327 326 328 334 338 340 337 326 330 338 337
339 340 333 329 334 338 338 339 338 336 333 334 336 339 337 338 339 336 339 339 339 338 334 339 340 341 343 344 344 344 342 340 329 335 333 337 339 333 333 327 325 327 340
340 336 330 328 336 338 337 336 335 334 338 337 336 337 335 338 338 339 337 337 338 336 332 335 338 339 342 343 343 343 341 342 335 333 329 329 332 328 338 325 324 325 329
332 334 329 331 336 336 336 334 334 336 337 337 338 335 339 339 338 336 335 338 338 334 332 331 340 340 339 339 340 342 339 329 327 325 326 333 335 328 340 328 324 323 323
332 335 333 330 337 337 336 334 335 337 338 335 336 340 337 338 339 337 336 339 340 334 333 333 338 341 341 341 342 341 337 327 326 323 326 335 332 328 326 327 336 324 324
332 335 336 336 337 336 333 333 337 335 333 333 334 333 336 337 334 335 340 341 341 334 332 334 337 341 342 341 341 340 335 329 327 331 323 329 338 333 338 330 326 325 325
330 332 331 335 335 332 329 334 335 328 327 326 333 334 332 332 332 339 341 339 332 330 330 333 340 342 344 342 342 342 342 333 329 325 326 334 337 324 326 326 328 326 325
334 331 332 336 330 327 330 335 332 338 339 334 333 337 338 337 339 336 332 331 331 331 332 335 340 341 342 343 343 344 343 339 330 328 325 324 324 324 324 324 324 323 322
336 342 342 332 332 327 334 339 342 344 343 341 336 339 338 337 333 331 329 329 329 336 341 341 341 341 342 343 343 344 342 331 326 328 326 328 325 325 325 325 324 324 324
344 345 337 339 339 336 338 339 342 339 342 342 337 337 338 337 338 343 341 342 339 338 341 344 345 345 344 344 344 344 341 329 324 322 322 323 323 323 323 324 325 326 327
346 344 337 339 343 343 342 340 339 341 343 343 341 338 338 338 338 342 345 340 341 341 343 344 340 338 340 342 341 343 340 341 337 331 327 326 326 327 328 328 330 329 328
346 345 344 343 344 346 343 343 340 342 341 343 344 342 339 340 342 342 341 343 341 340 342 344 343 340 342 342 342 341 343 344 345 344 343 339 332 331 330 329 327 325 323
345 345 344 346 347 345 344 343 342 342 343 344 345 344 345 343 340 343 343 343 343 343 344 342 344 343 344 341 341 342 342 342 343 344 344 346 338 321 322 320 319 318 319
345 344 344 347 344 344 345 344 342 341 344 345 345 344 345 345 342 344 343 342 342 343 343 344 344 342 342 342 342 341 341 339 341 342 343 345 336 321 320 319 319 320 321
344 344 342 341 344 344 344 345 345 343 344 344 342 345 344 342 344 345 344 342 341 342 344 344 344 343 341 340 343 342 340 339 342 341 342 343 333 331 330 323 325 327 330
345 344 342 342 344 343 343 345 344 344 344 343 342 341 342 343 343 344 344 345 344 344 344 344 344 344 343 344 344 344 343 341 343 342 344 342 340 334 336 331 334 340 342
346 344 342 342 343 342 343 344 344 345 345 344 344 345 342 343 343 343 342 342 344 345 344 344 345 343 343 344 344 345 344 344 345 343 344 344 344 340 337 335 341 343 345
344 344 344 343 342 338 343 344 345 345 344 344 344 344 342 340 344 342 342 343 345 345 345 344 345 345 344 344 344 344 343 344 345 344 344 343 344 343 339 336 337 344 344
344 343 343 346 344 337 344 346 346 345 344 345 346 344 342 342 346 345 339 341 340 344 343 344 344 343 343 343 345 343 341 340 340 341 343 343 343 343 341 336 342 347 347
342 341 341 344 345 345 337 345 347 347 347 345 345 344 346 344 343 347 342 345 343 344 344 344 344 343 341 341 341 345 344 341 341 341 341 343 342 342 341 341 345 346 346
342 341 342 344 345 346 343 345 348 347 346 345 344 346 345 346 344 345 344 345 342 342 344 345 344 344 338 339 341 342 343 343 341 340 341 342 341 342 341 343 344 347 348
341 342 341 343 344 345 341 344 347 349 347 345 346 347 347 346 344 347 344 341 345 343 337 345 344 343 341 343 344 343 348 348 348 349 341 341 342 342 342 344 344 345 348
342 344 345 342 340 341 341 345 347 348 347 346 346 346 348 344 345 345 342 344 345 344 344 345 341 342 343 343 345 347 346 348 348 349 345 341 342 342 344 344 345 347 349
Wind_Speed
18 16 15 18 16 14 13 12 12 13 13 13 13 14 15 15 16 16 18 19 18 18 18 18 21 22 24 25 25 24 22 21 23 23 24 22 20 18 18 19 18 18 17
21 18 19 18 15 13 12 13 13 14 14 14 15 16 16 15 16 17 17 18 18 19 20 20 23 25 25 24 25 24 23 21 19 19 19 19 19 18 19 19 18 17 16
23 21 19 16 14 13 13 14 14 14 14 15 15 15 16 16 17 17 18 18 19 20 20 22 24 26 24 25 26 27 26 22 18 16 18 18 18 17 19 18 18 18 19
24 21 17 15 14 13 13 13 13 13 14 14 15 15 16 16 17 18 17 18 18 20 21 23 23 22 22 21 19 20 18 17 18 16 17 18 18 17 17 17 15 18 17
23 18 17 15 14 14 13 12 13 13 13 14 15 15 15 16 16 18 18 19 20 19 20 24 22 22 20 19 17 14 16 16 16 14 16 17 17 15 15 15 15 15 16
22 19 16 14 14 13 13 12 12 13 14 14 15 16 15 17 17 17 18 19 19 20 20 21 21 20 19 18 20 16 14 11 12 13 13 15 16 16 15 15 15 14 14
24 19 16 15 13 13 13 13 13 14 14 14 15 15 15 16 17 17 18 18 20 21 21 21 22 18 19 17 17 16 13 11 9 11 14 16 15 15 15 14 14 14 14
23 19 16 15 13 13 13 14 14 14 13 13 13 15 15 17 17 16 17 18 18 20 21 23 21 18 19 15 16 14 11 11 12 13 14 15 14 14 14 14 13 14 13
20 18 16 15 14 13 14 15 15 15 13 14 14 15 16 17 17 18 17 17 19 19 20 19 20 18 17 15 16 18 16 13 11 11 14 13 13 12 13 12 12 11 12
19 15 15 15 14 15 16 17 16 17 17 17 18 17 17 18 19 19 19 19 19 20 21 21 20 19 17 12 14 16 15 12 11 10 12 12 11 11 10 10 10 10 10
19 16 16 17 16 15 18 19 20 20 19 20 21 20 19 19 21 20 20 20 21 23 23 23 21 17 16 12 10 9 13 12 9 9 8 10 9 9 10 9 9 9 8
24 22 18 21 20 19 19 20 20 17 15 16 20 21 21 21 21 20 22 23 24 26 25 22 18 14 10 10 8 6 11 11 9 9 8 7 8 8 8 8 8 7 8
23 21 22 26 23 22 20 17 19 21 19 19 19 20 21 22 22 20 19 18 19 22 20 16 11 9 6 3 3 3 11 15 12 11 9 9 8 8 7 7 7 7 7
21 23 25 23 20 20 19 18 17 18 16 15 16 18 21 22 20 16 13 12 12 15 18 15 13 12 10 6 4 6 11 13 16 14 12 10 9 8 7 7 7 7 8
24 22 23 21 17 16 16 14 14 14 15 13 10 13 16 14 10 9 12 11 15 14 16 14 14 10 10 8 13 11 9 11 12 14 16 15 11 8 7 7 8 7 8
25 22 22 19 14 13 16 14 14 13 11 11 7 11 13 13 9 11 12 10 13 12 11 11 11 11 10 6 8 10 7 8 9 10 11 13 14 10 8 9 10 9 9
24 25 23 19 15 15 14 17 16 17 16 10 7 7 10 12 12 7 11 11 11 12 10 10 9 10 11 8 6 6 5 2 4 7 9 11 13 13 12 12 12 12 11
27 27 24 20 16 15 13 16 16 16 13 13 12 7 9 9 11 10 8 9 9 10 9 7 9 9 9 12 9 7 3 3 3 7 9 10 13 14 15 13 14 13 13
26 26 20 21 22 16 18 16 17 12 12 10 12 10 11 11 9 9 9 8 6 7 9 10 10 7 9 7 4 2 5 4 1 6 7 11 10 10 12 13 13 14 14
25 18 14 18 20 13 18 17 14 10 12 10 10 9 10 13 15 8 12 11 7 8 9 8 6 5 4 4 2 3 4 5 5 1 6 9 9 10 8 9 12 12 12
24 19 17 18 19 18 20 16 12 12 11 10 9 8 9 15 13 8 10 12 10 11 8 7 6 5 5 2 1 1 3 5 8 9 3 4 6 7 8 5 5 8 10
25 21 21 18 16 15 19 14 12 10 6 9 8 9 9 11 16 13 10 9 7 8 9 9 6 3 6 3 2 1 2 3 2 1 5 3 5 3 7 9 10 9 9
27 23 23 21 17 13 17 17 14 11 10 10 10 10 10 8 15 13 14 11 10 12 11 10 7 5 6 3 2 2 0 2 5 5 2 5 3 2 3 6 9 9 10
26 23 24 21 20 16 15 19 11 12 10 11 7 7 9 8 15 12 14 14 11 13 12 9 7 7 6 2 1 2 4 5 1 4 5 4 7 5 1 2 1 4 8
26 24 24 25 23 19 17 22 13 14 11 8 10 13 9 9 14 10 14 11 12 9 10 12 9 6 5 2 1 0 4 7 3 3 6 8 8 8 3 1 3 0 4
29 27 23 22 21 20 21 23 16 15 13 11 9 13 10 10 11 10 10 12 10 13 12 12 11 9 5 4 2 5 5 6 7 6 6 8 6 7 4 1 1 2 3
Wind_Direction
152 142 133 134 130 116 109 104 99 97 98 102 107 111 112 116 117 114 112 110 108 111 110 107 109 109 107 108 108 105 103 102 103 100 97 94 91 92 90 92 85 87 89
146 144 133 131 125 119 111 103 99 100 101 102 109 116 111 114 117 114 113 114 112 113 112 110 111 111 108 111 109 104 98 96 101 99 100 97 90 88 91 90 89 88 85
149 145 135 134 129 124 114 107 101 103 103 102 103 115 120 114 117 117 116 114 114 114 111 115 114 113 107 103 106 102 91 92 99 98 100 98 93 94 91 95 91 87 81
151 145 138 134 129 119 114 108 105 106 104 103 103 109 114 118 117 120 120 118 116 118 116 119 120 117 108 104 106 105 96 90 89 99 101 102 98 94 87 89 96 91 90
146 141 139 137 125 119 113 111 108 103 104 107 105 105 111 118 117 122 120 117 116 117 118 125 121 115 105 99 108 113 101 95 84 104 102 101 94 90 90 84 94 96 94
143 141 135 132 126 122 115 111 106 105 106 108 110 109 110 117 122 121 119 119 116 117 121 129 127 118 109 101 105 103 92 91 84 101 102 99 95 94 90 86 91 96 100
143 141 134 132 127 122 116 106 103 104 105 109 112 115 115 122 124 121 122 124 114 114 126 130 130 121 109 105 98 93 85 78 93 106 103 98 94 92 96 85 88 89 92
143 141 134 132 129 119 112 104 106 109 107 110 117 116 120 122 122 122 124 126 119 113 128 134 132 113 115 107 96 94 73 87 101 104 104 99 95 93 90 87 82 84 90
149 144 136 128 124 117 110 108 109 110 111 113 121 124 125 123 125 123 119 119 118 116 127 133 127 119 124 111 97 84 82 89 86 95 99 104 98 98 93 86 89 89 89
148 145 133 122 118 114 114 116 113 107 103 110 116 115 117 121 120 119 115 115 117 119 125 131 124 119 120 110 95 82 78 78 82 83 100 103 101 99 99 94 91 89 88
145 136 130 118 112 117 123 122 121 113 100 104 109 107 109 114 113 115 114 115 117 118 120 125 123 119 120 116 101 78 59 51 76 81 88 95 97 99 97 94 90 87 89
143 130 120 117 115 123 123 120 113 105 114 105 106 111 109 113 114 117 113 110 115 121 120 119 125 124 117 122 112 86 58 48 73 75 75 84 92 92 93 89 86 87 81
141 133 125 124 117 122 127 120 111 108 106 120 107 113 118 118 118 116 113 111 118 120 117 108 117 124 131 112 92 169 69 59 64 67 68 69 74 81 80 81 82 78 76
149 136 133 137 126 122 120 113 118 119 126 116 113 115 123 123 127 123 115 107 115 130 122 100 117 116 107 109 190 173 85 66 60 70 73 71 71 72 71 74 75 72 68
156 145 146 145 136 134 136 121 115 125 134 136 136 133 132 137 132 137 126 109 119 118 120 107 113 108 104 79 90 118 92 69 67 64 65 60 66 68 72 73 71 66 65
162 152 152 150 151 154 145 144 130 146 153 148 148 141 144 123 137 127 108 110 112 137 132 130 125 117 106 85 92 98 99 70 64 63 59 54 51 67 73 75 72 69 70
164 155 148 158 160 159 160 151 138 146 156 172 166 143 151 136 136 139 137 113 126 145 147 138 127 118 120 131 104 95 99 72 68 68 59 55 57 69 73 79 81 78 76
157 160 161 170 156 159 158 162 158 164 168 159 166 171 165 158 158 163 152 143 141 143 149 149 155 127 144 140 137 133 136 151 78 92 62 70 68 71 71 76 79 80 75
161 162 167 176 168 172 179 164 175 173 180 169 175 170 184 183 194 172 171 165 148 130 137 158 154 137 149 158 165 170 155 194 85 66 56 65 75 73 76 78 79 79 78
162 154 153 176 183 186 173 185 179 171 183 200 191 184 175 176 173 178 175 175 173 186 150 144 155 125 180 181 240 242 241 227 220 336 56 76 67 69 79 78 88 87 79
163 162 162 168 191 201 184 186 197 187 198 196 184 183 189 184 187 173 186 186 174 171 171 175 160 130 138 142 293 298 250 262 253 254 275 65 54 54 67 71 74 78 80
177 176 171 184 175 183 185 190 189 195 180 183 195 171 182 188 186 186 181 165 185 194 182 172 168 146 136 93 17 16 177 216 221 226 192 203 38 5 36 73 92 77 57
187 194 193 185 191 195 197 196 192 196 204 200 190 178 175 180 191 187 193 176 166 178 177 183 185 171 153 170 292 280 297 169 185 188 177 176 259 332 56 91 78 73 55
196 191 200 193 196 199 201 201 198 205 218 217 215 191 182 178 183 191 177 178 184 192 193 192 183 186 193 222 245 102 77 140 198 175 191 220 210 246 160 40 46 42 34
200 197 199 206 204 201 205 201 208 211 208 206 205 193 180 180 186 197 202 192 190 189 190 188 190 184 190 192 42 182 115 114 70 268 210 193 217 232 194 229 65 292 10
200 202 200 207 216 208 202 204 200 205 217 212 212 216 196 181 183 201 212 210 212 212 203 205 203 196 201 172 102 91 128 116 68 63 230 219 193 180 192 219 231 294 356